Dauntless Aviation
Airports South America Uruguay

Hospital Policial

Montevideo, URUGUAY

Airport Info
Suggest Updated Information for this Airport

Location

Latitude / Longitude: 34°52'4"S / 56°9'6"W
  34°52.068'S / 56°9.114'W
  -34.8678 / -56.1519
Satellite photo at:
Airport distance calculator
From:
Weather Reports

METAR

SUAA
7.8nm NW
SUAA 281000Z 22008KT 9999 OVC016 13/12 Q1019
SUMU
8.1nm NE
SUMU 281000Z 24009KT 9999 OVC020 13/11 Q1018

TAF

SUAA
7.8nm NW
TAF SUAA 280530Z 2806/2906 29014KT 8000 OVC010 TX15/2818Z TN12/2810Z PROB30 TEMPO 2807/2818 22010KT 3500 DZBR BKN010
SUMU
8.1nm NE
TAF SUMU 280530Z 2806/2906 27012KT 2500 DZ OVC015 TX15/2818Z TN12/2810Z PROB30 TEMPO 2807/2818 22010KT 3500 DZBR BKN010
Safelog

 

Dauntless Aviation

© 2007-2017 Dauntless Aviation, all rights reserved
Information provided via PilotNav comes from a variety of official and unofficial data sources. As errors are possible, do not use PilotNav for primary flight planning purposes. Verify any information that you receive via PilotNav with current and canonical charts and other official documents. The material in this database is subject to database copyrights held by Dauntless Aviation and may not be copied without the express permission of Dauntless Aviation - licenses for use of part of all of this data are available for purchase; enquire via the Dauntless Aviation helpdesk. A number of mechanisms and markers exist in the database to protect against and identify infringement / copyright. Automated queries against this website are stictly prohibited, and all activity is logged and analyzed.